LX1BS-13 Weather Reports


Display with metric or nautical units.
time (UTC)temp
F
wind
direction
speed
MPH
gust
MPH
rain 1hr
in
rain 24hr
in
rain mn
in
humidity
%
barometer
mb
20260506084605 51 294 2.0 7.0 0.00 0.41 0.03 93 1005.1
20260506083058 51 0 3.0 6.0 0.00 0.41 0.03 94 1005.0
20260506081559 52 0 0.0 2.0 0.00 0.41 0.03 95 1004.9
20260506080106 52 319 0.0 3.0 0.00 0.41 0.03 95 1004.9
20260506073058 51 0 0.0 1.0 0.01 0.41 0.03 95 1005.0
20260506071604 51 0 2.0 5.0 0.00 0.40 0.03 94 1004.9
20260506061556 51 323 1.0 3.0 0.01 0.40 0.02 95 1004.4
20260506050106 51 0 0.0 0.0 0.00 0.38 0.00 96 1004.0
20260506044558 51 0 0.0 0.0 0.00 0.38 0.00 96 1004.0
20260506043100 51 0 0.0 0.0 0.00 0.38 0.00 96 1004.2
20260506041602 51 0 0.0 0.0 0.00 0.38 0.00 96 1004.1
20260506040058 51 0 0.0 1.0 0.00 0.38 0.00 95 1004.3
20260506034615 51 0 0.0 0.0 0.00 0.38 0.00 95 1004.5
20260506033058 51 0 0.0 0.0 0.00 0.38 0.00 95 1004.6
20260506031607 51 0 0.0 2.0 0.00 0.38 0.00 95 1004.5
20260506030100 51 93 0.0 2.0 0.00 0.38 0.00 95 1004.6
20260506024616 51 0 0.0 2.0 0.00 0.38 0.00 95 1004.7
20260506023056 51 0 0.0 1.0 0.00 0.38 0.00 95 1004.6
20260506021559 52 0 0.0 2.0 0.00 0.38 0.00 95 1004.6
20260506020100 52 0 0.0 2.0 0.00 0.38 0.00 95 1004.6
20260506014559 52 0 0.0 2.0 0.00 0.38 0.00 95 1004.8
20260506013110 52 0 0.0 2.0 0.00 0.38 0.00 95 1004.8
20260506011608 52 0 0.0 2.0 0.00 0.38 0.00 95 1004.9
20260506010058 52 0 0.0 3.0 0.00 0.38 0.00 95 1005.0
20260506004557 53 0 0.0 3.0 0.00 0.38 0.00 96 1005.0
20260506003058 53 17 0.0 3.0 0.00 0.38 0.00 96 1005.1
20260506001558 53 330 0.0 2.0 0.00 0.38 0.00 96 1005.2
20260505234557 53 0 0.0 2.0 0.00 0.38 0.00 96 1005.5
20260505233055 53 0 0.0 2.0 0.00 0.38 0.00 96 1005.6
20260505231559 53 188 0.0 1.0 0.00 0.38 0.00 96 1005.6
20260505230107 53 185 0.0 0.0 0.00 0.38 0.00 96 1005.6
20260505224600 53 0 0.0 0.0 0.00 0.38 0.00 95 1005.8
20260505223110 53 0 0.0 1.0 0.00 0.38 0.00 95 1005.9
20260505221559 53 0 0.0 1.0 0.00 0.38 0.00 96 1005.9
20260505220108 53 0 0.0 1.0 0.00 0.37 0.00 96 1006.1
20260505214556 53 0 0.0 0.0 0.00 0.37 0.37 96 1006.2
20260505213101 53 0 0.0 1.0 0.04 0.37 0.37 96 1006.2
20260505211559 53 0 0.0 0.0 0.10 0.37 0.37 96 1006.3
20260505210058 53 0 0.0 0.0 0.17 0.37 0.37 95 1006.5
20260505204606 53 0 0.0 0.0 0.21 0.37 0.37 95 1006.3
20260505203116 53 0 0.0 1.0 0.18 0.33 0.33 95 1006.4
20260505201603 53 0 0.0 0.0 0.12 0.27 0.27 95 1006.4
20260505200101 53 0 0.0 1.0 0.07 0.20 0.20 95 1006.4
20260505194612 53 0 0.0 2.0 0.03 0.15 0.15 95 1006.4
20260505193059 54 0 0.0 0.0 0.03 0.14 0.14 95 1006.2
20260505191601 54 0 0.0 0.0 0.04 0.14 0.14 95 1006.0
20260505190100 54 0 0.0 1.0 0.03 0.13 0.13 95 1006.1
20260505184601 54 0 0.0 0.0 0.02 0.12 0.12 95 1006.1
20260505183107 54 0 0.0 0.0 0.00 0.11 0.11 94 1006.1
20260505181558 54 0 0.0 0.0 0.00 0.10 0.10 94 1006.3
20260505180056 54 0 0.0 0.0 0.00 0.10 0.10 94 1006.3
20260505174604 55 0 0.0 1.0 0.00 0.10 0.10 94 1006.4
20260505173100 55 0 0.0 0.0 0.00 0.10 0.10 93 1006.4
20260505171558 55 0 0.0 0.0 0.00 0.10 0.10 93 1006.4
20260505170057 55 0 0.0 0.0 0.01 0.10 0.10 93 1006.4
20260505164604 55 0 0.0 0.0 0.02 0.10 0.10 93 1006.4
20260505163102 55 0 0.0 0.0 0.02 0.10 0.10 92 1006.4
20260505161557 55 0 0.0 2.0 0.03 0.09 0.09 91 1006.5
20260505153115 57 0 0.0 0.0 0.02 0.07 0.07 91 1006.8
20260505151604 57 0 0.0 2.0 0.01 0.06 0.06 90 1006.8
20260505140107 57 80 0.0 2.0 0.03 0.04 0.04 91 1007.1
20260505124559 58 0 0.0 4.0 0.00 0.02 0.00 89 1007.4
20260505123106 58 36 0.0 3.0 0.00 0.02 0.00 88 1007.4
20260505121600 58 125 3.0 10.0 0.00 0.02 0.00 87 1007.4
20260505120059 59 103 3.0 7.0 0.00 0.01 0.00 82 1007.4
20260505114558 60 100 3.0 9.0 0.00 0.01 0.00 80 1007.4
20260505113132 61 99 2.0 8.0 0.00 0.01 0.00 78 1007.4
20260505111559 61 15 1.0 8.0 0.00 0.01 0.00 76 1007.5
20260505110105 61 116 4.0 9.0 0.00 0.01 0.00 77 1007.5
20260505101602 61 94 3.0 9.0 0.00 0.01 0.00 79 1007.8
20260505100057 61 132 0.0 6.0 0.00 0.01 0.00 78 1007.9
20260505094607 61 44 1.0 3.0 0.00 0.01 0.00 78 1007.9
20260505093058 61 103 1.0 4.0 0.00 0.01 0.00 76 1008.0
20260505091600 61 119 0.0 2.0 0.00 0.01 0.00 79 1008.0